Location: Dos Palmas
(32.4468°N, 116.8732°W)
Time: 01:29:46
(UTC+00:00)

Meteor 1-24 Rocket - Pass Details

Date: 30 October 2021
Orbit: 790 x 927 km, 81.3° (Epoch: 07 December)

Event Time Altitude Azimuth Distance (km) Brightness Sun altitude
Rises 13:17:26 0° 216° (SW) 3,285 6.5 -10.3°
Reaches altitude 10° 13:20:08 10° 229° (SW) 2,371 5.7 -9.7°
Maximum altitude 13:24:34 26° 285° (WNW) 1,547 4.5 -8.8°
Drops below altitude 10° 13:29:08 10° 342° (NNW) 2,441 5.8 -7.9°
Sets 13:31:59 0° 354° (N) 3,403 6.7 -7.3°
